Wetbulb
77.91 76.94 77.08 77.55 77.15 76.69 76.15 76.28 78.12 78.18 78.90 78.96 79.03 78.90 78.78 77.86 77.48 77.90 77.39 77.47 77.39 77.25
77.92 77.92 77.45 78.44 78.19 77.48 78.11 76.95 77.86 78.44 78.58 79.03 78.99 79.29 79.13 77.57 77.56 77.86 77.74 77.47 77.64 77.09
77.74 78.14 78.04 78.16 77.96 78.31 78.00 78.37 78.66 78.29 78.58 78.49 78.99 79.29 79.44 77.99 78.17 77.81 78.02 77.67 77.86 78.04
77.34 77.91 78.16 77.71 78.08 78.46 78.50 78.86 78.66 79.12 78.53 78.66 78.66 79.61 79.00 78.87 78.64 78.05 79.04 78.47 77.72 76.85
76.60 76.97 77.08 77.24 77.64 78.28 78.18 78.79 79.01 79.05 78.82 78.77 78.87 79.13 78.95 78.46 78.33 78.33 78.48 78.24 78.08 78.10
72.53 73.89 76.68 77.32 78.02 78.44 78.57 78.93 78.59 79.08 79.04 78.95 79.13 79.10 79.29 79.35 79.33 79.22 78.95 79.32 78.31 78.24
73.90 74.38 75.16 75.87 77.49 78.44 79.36 78.88 79.49 79.89 79.84 79.76 79.86 79.50 79.36 79.28 79.50 79.47 79.43 79.62 79.71 79.26
74.72 75.88 78.25 78.73 79.01 78.86 78.39 78.79 80.10 80.19 80.35 80.44 80.05 79.69 79.66 79.51 79.47 79.51 79.47 79.82 79.86 79.78
78.57 78.76 78.96 79.00 79.57 80.19 79.57 79.87 79.89 80.02 80.68 80.42 79.85 73.05 71.44 75.73 79.18 79.74 79.35 78.87 79.58 79.89
77.60 75.02 77.61 76.21 71.40 71.47 77.31 80.23 80.42 80.51 81.02 80.70 81.07 71.48 68.97 71.02 78.47 78.88 79.40 79.25 79.02 78.99
76.47 72.88 71.86 70.13 68.06 66.23 64.91 74.85 79.35 79.43 80.76 81.58 80.98 69.28 67.65 69.91 78.76 79.50 79.88 80.14 80.01 79.94
75.69 75.16 72.36 72.69 69.28 69.00 73.46 77.05 76.98 77.20 79.09 79.72 80.89 68.84 65.89 70.70 78.92 79.25 79.83 80.53 80.72 80.64
76.64 76.22 75.38 75.61 75.05 75.89 75.87 74.43 73.52 73.92 75.33 72.14 77.07 70.62 64.28 69.21 78.86 78.94 78.90 80.62 81.51 71.01
74.93 74.60 74.68 74.72 74.84 74.67 74.39 74.33 73.98 73.59 74.74 75.83 75.44 76.67 63.27 62.19 78.18 79.17 79.72 78.41 78.95 80.09
MSLP
1015.62 1015.87 1016.15 1016.38 1016.48 1016.42 1016.45 1016.64 1016.82 1017.31 1017.94 1018.03 1018.14 1018.24 1018.44 1018.68 1018.81 1018.77 1018.89 1018.99 1018.97 1018.73
1014.84 1015.27 1015.06 1015.71 1016.03 1016.27 1016.41 1016.30 1016.65 1017.15 1017.55 1017.57 1017.67 1017.80 1017.86 1018.05 1018.12 1018.32 1018.36 1018.24 1018.24 1018.25
1013.92 1014.39 1014.80 1015.29 1015.70 1015.80 1015.81 1016.01 1016.25 1016.54 1017.07 1017.15 1017.04 1017.01 1017.43 1017.39 1017.64 1017.82 1017.70 1017.52 1017.42 1017.44
1013.62 1013.91 1014.27 1014.46 1014.89 1015.34 1015.61 1015.64 1015.77 1016.07 1016.42 1016.58 1016.53 1016.77 1016.77 1016.85 1016.78 1016.92 1017.11 1017.08 1016.99 1017.26
1013.63 1013.89 1013.69 1013.83 1014.25 1014.61 1014.91 1015.11 1015.08 1015.39 1015.76 1015.92 1015.95 1016.09 1016.30 1016.33 1016.08 1016.24 1016.40 1016.27 1016.35 1016.61
1013.50 1013.49 1013.41 1013.36 1013.74 1013.83 1014.20 1014.51 1014.42 1014.54 1015.04 1015.22 1015.19 1015.30 1015.42 1015.59 1015.53 1015.44 1015.51 1015.79 1015.82 1015.79
1012.80 1012.80 1012.70 1013.04 1013.25 1013.27 1013.50 1013.79 1013.83 1013.74 1013.91 1014.22 1014.41 1014.44 1014.60 1014.74 1014.81 1014.85 1014.83 1014.98 1015.26 1015.30
1012.51 1012.48 1012.40 1012.58 1012.81 1013.07 1013.22 1013.16 1013.30 1013.33 1013.30 1013.39 1013.45 1013.44 1013.68 1013.98 1014.01 1014.10 1014.23 1014.21 1014.39 1014.52
1011.80 1011.95 1012.09 1012.00 1012.07 1012.43 1012.60 1012.72 1012.76 1012.79 1012.75 1012.77 1012.68 1012.50 1013.01 1013.26 1013.03 1013.18 1013.37 1013.32 1013.34 1013.62
1011.81 1012.26 1012.84 1012.04 1012.10 1012.61 1013.08 1012.30 1012.10 1012.05 1012.11 1012.14 1012.26 1012.10 1012.45 1012.88 1013.01 1012.53 1012.33 1012.43 1012.43 1012.55
1011.78 1012.37 1012.99 1012.71 1011.94 1012.14 1012.94 1012.90 1011.53 1011.35 1011.07 1011.90 1011.66 1011.67 1011.99 1012.28 1012.48 1011.98 1011.75 1011.71 1011.74 1012.02
1011.44 1011.49 1011.67 1011.95 1012.21 1013.09 1013.71 1012.45 1011.59 1011.28 1010.28 1011.11 1011.36 1011.27 1011.38 1012.01 1011.75 1011.16 1011.01 1010.95 1011.03 1011.23
1011.29 1011.33 1011.31 1011.55 1012.14 1012.52 1012.44 1012.04 1011.45 1011.33 1011.15 1011.33 1011.18 1011.02 1011.31 1011.45 1010.75 1010.28 1010.16 1009.99 1010.28 1010.81
1011.85 1011.68 1011.56 1011.49 1011.64 1011.59 1011.35 1011.07 1010.81 1010.74 1010.77 1010.61 1010.47 1010.65 1010.99 1011.07 1010.85 1009.81 1009.61 1009.12 1009.28 1009.66
Wind_Speed
16 11 11 12 10 8 7 7 7 8 11 12 11 10 10 9 9 9 9 11 10 9
14 14 12 12 10 9 9 8 8 9 11 11 12 12 11 10 10 10 10 11 11 10
14 14 13 11 12 12 10 10 9 10 11 12 12 12 12 10 11 11 10 9 11 11
11 12 12 12 13 13 14 12 11 11 12 13 13 12 12 12 11 11 11 11 10 9
8 9 11 12 14 13 13 13 12 12 14 14 14 13 13 14 12 13 13 12 11 11
8 13 10 10 13 12 13 13 14 13 14 15 15 15 15 14 14 14 14 12 11 12
10 11 10 12 12 11 12 12 13 13 14 15 16 16 16 16 15 15 13 12 12 11
9 10 11 9 9 11 12 13 13 14 14 15 14 12 16 16 15 14 14 13 11 12
9 7 6 3 5 7 9 10 11 13 14 14 12 11 12 12 12 12 13 12 13 12
10 5 6 3 5 10 15 13 13 11 13 14 14 9 10 11 13 12 12 12 12 11
7 7 7 2 7 12 25 26 9 8 11 12 13 10 11 12 13 13 13 12 12 12
7 9 5 2 5 10 21 11 7 8 8 10 13 8 12 11 12 13 14 13 14 13
8 8 9 9 9 9 10 9 6 6 7 10 10 7 10 11 10 13 12 14 14 13
9 9 10 9 9 9 8 6 6 7 7 8 5 7 7 12 10 10 10 12 12 12
Wind_Direction
218 221 225 227 241 236 232 245 247 229 234 227 238 228 232 236 239 242 238 244 256 271
211 220 222 234 230 229 236 246 231 250 244 239 235 234 232 235 241 243 245 251 250 253
207 208 215 225 233 243 241 229 247 232 238 241 237 228 223 236 236 245 246 248 253 258
214 211 211 216 220 229 239 232 231 231 234 240 241 238 225 233 249 237 240 244 251 254
215 228 231 221 229 231 234 237 226 231 235 236 240 240 235 233 237 231 241 244 236 245
187 240 236 254 242 235 231 235 241 225 233 238 236 236 235 234 235 238 239 240 238 252
221 231 247 252 249 252 241 246 244 232 233 234 237 236 237 237 237 246 247 249 253 258
239 253 262 242 245 252 253 260 250 247 244 237 235 231 229 237 243 246 249 249 244 243
227 222 236 256 258 265 261 255 247 248 244 240 238 225 216 238 237 235 245 243 238 237
207 108 249 139 38 356 312 255 240 241 247 244 245 221 193 204 243 241 235 233 235 232
192 195 195 164 78 29 345 270 237 227 235 263 258 230 200 197 225 232 240 241 233 232
235 256 268 253 143 192 232 269 267 276 296 273 268 228 201 190 225 229 230 231 231 232
224 221 231 236 218 216 233 247 263 256 260 259 269 255 200 199 237 234 229 223 227 210
227 236 235 237 245 246 246 275 267 281 284 279 295 290 202 201 248 254 240 240 219 227